User: anonymous   Login
Location: Bessat
(45.8735°N, 1.9924°E)
Time: 11:31:30
(UTC+00:00)
Language:

Cosmos 1271 Rocket - Orbit

View from above orbital plane
View from above orbital plane
View from above satellite
View from above satellite

Ground track
Ground track

The orbit data is extracted from the following two-line orbital elements,

1 12465U 81046B   21211.95561359  .00001057  00000-0  54499-4 0  9995
2 12465  81.2421  94.3288 0033230 331.2772  28.6625 15.15018681182127
Epoch (UTC): 30 July 2021 22:56:05
Eccentricity: 0.0033230
inclination: 81.2421°
perigee height: 498 km
apogee height: 544 km
right ascension of ascending node: 94.3288°
argument of perigee: 331.2772°
revolutions per day: 15.15018681
mean anomaly at epoch: 28.6625°
orbit number at epoch: 18212

The dashed part of the orbit path shows where the satellite is in the earth's shadow,  

DLR